Language: 


Des rapports , des résumés tant et plus, au choix de chacun....


Données statistiques de la station
Quotidien Rapport Janvier 2, 2018 Unités:  Métrique    Anglais   les deux
« Précédent Jour
Suivant Jour »
Quotidien Hebdomadaire Mensuel Annuel Actuel
  Haut: Bas: Moyen:
Température: -17.8 °C -16.6 °C -13.9 °C
Pt de rosée: -17.8 °C -17.2 °C -14.5 °C
Humidité: Humidity % 75 % 92 %
Vitesse du vent: 0 km/h 0 km/h 16.4 km/h
Rafales: 0 km/h - -
Vent:- - SW
Pression: 0 hPa 33731.3 hPa -
Précipitation: 33.02 mm    
Historical Graphs
 
 
Données statistiques pour Janvier 2, 2018
Heure Température Point de rosée Pression Vent Vitesse du vent Refales Humidité Pluie (taux horaire)
-17.8 °C -17.8 °C 0 hPa Calm     Humidity % 0 mm
00:04 -13.4 °C -15 °C 34029.3 hPa West 40.7 km/h 49.7 km/h 81 % 0 mm
00:06 -13.4 °C -15 °C 34029.3 hPa WSW 25.4 km/h 50.5 km/h 81 % 0 mm
00:08 -13.4 °C -15 °C 34029.3 hPa West 19.2 km/h 50.5 km/h 81 % 0 mm
00:12 -13.4 °C -15 °C 34029.3 hPa West 33.2 km/h 50.5 km/h 81 % 0 mm
00:13 -13.4 °C -15 °C 34029.3 hPa WSW 36 km/h 50.5 km/h 81 % 0 mm
00:14 -13.4 °C -15 °C 34029.3 hPa West 36.5 km/h 50.5 km/h 81 % 0 mm
00:19 -13.4 °C -15 °C 34029.3 hPa West 26.2 km/h 50.5 km/h 80 % 0 mm
00:20 -13.4 °C -15 °C 34029.3 hPa West 39.9 km/h 50.5 km/h 80 % 0 mm
00:24 -13.4 °C -15 °C 34029.3 hPa West 36.5 km/h 50.5 km/h 80 % 0 mm
00:26 -13.4 °C -15 °C 33992.1 hPa WSW 34.8 km/h 50.5 km/h 79 % 0 mm
00:31 -13.4 °C -15 °C 33992.1 hPa WSW 39.9 km/h 49.7 km/h 79 % 0 mm
00:36 -13.4 °C -15.6 °C 33992.1 hPa WSW 27.2 km/h 49.7 km/h 78 % 0 mm
00:41 -13.4 °C -15.6 °C 34029.3 hPa WSW 39.9 km/h 44.6 km/h 78 % 0 mm
00:44 -13.4 °C -15.6 °C 34029.3 hPa West 28.5 km/h 40.7 km/h 78 % 0 mm
00:49 -13.4 °C -15.6 °C 34029.3 hPa West 45.9 km/h 51 km/h 77 % 0 mm
00:54 -13.5 °C -15.6 °C 34029.3 hPa WNW 26.2 km/h 51 km/h 78 % 0 mm
00:59 -13.5 °C -15.6 °C 34029.3 hPa West 19.6 km/h 45.9 km/h 78 % 0 mm
01:01 -13.5 °C -15.6 °C 34029.3 hPa WSW 37.5 km/h 43 km/h 78 % 0 mm
01:06 -13.5 °C -15.6 °C 34029.3 hPa West 16.9 km/h 43 km/h 79 % 0 mm
01:11 -13.6 °C -15 °C 34063.2 hPa WSW 19.6 km/h 38.3 km/h 80 % 0 mm
01:12 -13.6 °C -15 °C 34063.2 hPa West 39.9 km/h 39.9 km/h 80 % 0 mm
01:17 -13.6 °C -15 °C 34063.2 hPa West 26.2 km/h 39.9 km/h 81 % 0 mm
01:20 -13.6 °C -15 °C 34063.2 hPa WSW 45.1 km/h 45.1 km/h 82 % 0 mm
01:22 -13.6 °C -15 °C 34063.2 hPa WSW 33.2 km/h 45.1 km/h 82 % 0 mm
01:27 -13.6 °C -15 °C 34063.2 hPa WSW 31.4 km/h 58.6 km/h 81 % 0 mm
01:31 -13.6 °C -15 °C 34063.2 hPa West 33.6 km/h 58.6 km/h 81 % 0 mm
01:32 -13.6 °C -15 °C 34063.2 hPa West 39.9 km/h 58.6 km/h 81 % 0 mm
01:37 -13.4 °C -15.6 °C 34063.2 hPa West 27.7 km/h 41.7 km/h 79 % 0 mm
01:39 -13.4 °C -15.6 °C 34063.2 hPa West 27.2 km/h 42.2 km/h 78 % 0 mm
01:44 -13.4 °C -15.6 °C 34097 hPa West 20.9 km/h 48.1 km/h 78 % 0 mm
01:49 -13.4 °C -15.6 °C 34097 hPa NW 20.9 km/h 48.1 km/h 76 % 0 mm
01:54 -13.4 °C -15.6 °C 34097 hPa West 27.7 km/h 42.2 km/h 76 % 0 mm
01:55 -13.4 °C -15.6 °C 34097 hPa West 28.5 km/h 42.2 km/h 76 % 0 mm
01:56 -13.4 °C -15.6 °C 34097 hPa West 15.6 km/h 39.9 km/h 76 % 0 mm
02:01 -13.4 °C -15.6 °C 34097 hPa West 14.5 km/h 39.4 km/h 76 % 0 mm
02:03 -13.4 °C -15.6 °C 34097 hPa WNW 39.4 km/h 39.4 km/h 76 % 0 mm
02:05 -13.4 °C -15.6 °C 34097 hPa West 24.8 km/h 39.4 km/h 76 % 0 mm
02:10 -13.4 °C -15.6 °C 34097 hPa West 12.7 km/h 39.4 km/h 76 % 0 mm
02:13 -13.4 °C -15.6 °C 34097 hPa WSW 14.5 km/h 39.4 km/h 75 % 0 mm
02:16 -13.4 °C -15.6 °C 34097 hPa West 29.5 km/h 39.4 km/h 75 % 0 mm
02:21 -13.4 °C -15.6 °C 34097 hPa WSW 22.5 km/h 39.4 km/h 75 % 0 mm
02:23 -13.4 °C -15.6 °C 34097 hPa West 24.8 km/h 37 km/h 75 % 0 mm
02:24 -13.4 °C -15.6 °C 34097 hPa WNW 28.5 km/h 37 km/h 75 % 0 mm
02:28 -13.4 °C -15.6 °C 34097 hPa West 15 km/h 36 km/h 75 % 0 mm
02:33 -13.4 °C -15.6 °C 34097 hPa West 19.2 km/h 36.5 km/h 75 % 0 mm
02:36 -13.4 °C -15.6 °C 34097 hPa West 26.7 km/h 36.5 km/h 75 % 0 mm
02:37 -13.4 °C -15.6 °C 34097 hPa WSW 9.8 km/h 36.5 km/h 75 % 0 mm
02:41 -13.4 °C -15.6 °C 34130.9 hPa WSW 22 km/h 38.3 km/h 76 % 0 mm
02:46 -13.5 °C -15.6 °C 34130.9 hPa West 15 km/h 38.3 km/h 76 % 0 mm
02:51 -13.5 °C -15.6 °C 34130.9 hPa West 22.5 km/h 42.2 km/h 76 % 0 mm
02:56 -13.5 °C -15.6 °C 34198.6 hPa West 16.9 km/h 42.2 km/h 77 % 0 mm
02:58 -13.5 °C -15.6 °C 34198.6 hPa West 19.2 km/h 42.2 km/h 77 % 0 mm
03:03 -13.5 °C -15.6 °C 34198.6 hPa West 23 km/h 31.9 km/h 77 % 0 mm
03:04 -13.5 °C -15.6 °C 34198.6 hPa South 12.7 km/h 31.9 km/h 77 % 0 mm
03:09 -13.5 °C -15.6 °C 34198.6 hPa West 19.6 km/h 31.9 km/h 77 % 0 mm
03:10 -13.5 °C -15.6 °C 34198.6 hPa SSW 10.3 km/h 31.9 km/h 77 % 0 mm
03:20 -13.6 °C -15.6 °C 34164.7 hPa West 19.6 km/h 31.4 km/h 78 % 0 mm
03:23 -13.6 °C -15.6 °C 34164.7 hPa WSW 16.9 km/h 31.9 km/h 78 % 0 mm
03:28 -13.6 °C -15.6 °C 34164.7 hPa West 15 km/h 32.3 km/h 78 % 0 mm
03:31 -13.6 °C -15.6 °C 34164.7 hPa WSW 6.9 km/h 32.3 km/h 78 % 0 mm
03:37 -13.7 °C -15.6 °C 34164.7 hPa West 15 km/h 31.4 km/h 78 % 0 mm
03:43 -13.8 °C -15.6 °C 34164.7 hPa West 20.3 km/h 38.3 km/h 79 % 0 mm
03:44 -13.8 °C -15.6 °C 34164.7 hPa WNW 16.9 km/h 38.3 km/h 79 % 0 mm
03:50 -13.8 °C -15.6 °C 34164.7 hPa West 16.9 km/h 31.9 km/h 79 % 0 mm
03:55 -13.9 °C -15.6 °C 34164.7 hPa West 15.6 km/h 31.9 km/h 80 % 0 mm
04:00 -14 °C -15.6 °C 34164.7 hPa WSW 14.5 km/h 27.7 km/h 80 % 0 mm
04:02 -14.1 °C -15.6 °C 34164.7 hPa WSW 14.5 km/h 23.8 km/h 80 % 0 mm
04:07 -14.1 °C -15.6 °C 34164.7 hPa West 9.8 km/h 27.2 km/h 80 % 0 mm
04:15 -14.2 °C -16.1 °C 34164.7 hPa West 19.6 km/h 25.4 km/h 81 % 0 mm
04:20 -14.3 °C -15.6 °C 34164.7 hPa WSW 17.4 km/h 22.5 km/h 82 % 0 mm
04:22 -14.3 °C -15.6 °C 34164.7 hPa WSW 16.9 km/h 22.5 km/h 82 % 0 mm
04:34 -14.4 °C -15.6 °C 34164.7 hPa WSW 19.2 km/h 22.5 km/h 84 % 0 mm
04:49 -14.6 °C -15.6 °C 34198.6 hPa WSW 10.3 km/h 20.9 km/h 85 % 0 mm
04:51 -14.6 °C -15.6 °C 34198.6 hPa WSW 11.1 km/h 20.9 km/h 85 % 0 mm
04:55 -14.7 °C -15.6 °C 34198.6 hPa West 20.3 km/h 20.9 km/h 85 % 0 mm
05:00 -14.7 °C -15.6 °C 34198.6 hPa WSW 2.3 km/h 20.3 km/h 86 % 0 mm
05:01 -14.7 °C -15.6 °C 34198.6 hPa WSW 12.7 km/h 20.3 km/h 86 % 0 mm
05:07 -14.8 °C -16.1 °C 34198.6 hPa West 16.9 km/h 19.6 km/h 86 % 0 mm
05:12 -14.8 °C -16.1 °C 34198.6 hPa West 16.9 km/h 16.9 km/h 86 % 0 mm
05:13 -14.8 °C -16.1 °C 34198.6 hPa West 9.3 km/h 16.9 km/h 86 % 0 mm
05:18 -14.8 °C -15.6 °C 34198.6 hPa West 15 km/h 19.6 km/h 87 % 0 mm
05:19 -14.8 °C -15.6 °C 34198.6 hPa WSW 6.9 km/h 19.6 km/h 87 % 0 mm
05:21 -14.8 °C -15.6 °C 34198.6 hPa West 15.6 km/h 26.7 km/h 87 % 0 mm
05:26 -14.8 °C -15.6 °C 34235.8 hPa West 8 km/h 26.7 km/h 88 % 0 mm
05:28 -14.8 °C -15.6 °C 34235.8 hPa West 16.9 km/h 26.7 km/h 88 % 0 mm
05:33 -14.8 °C -15.6 °C 34235.8 hPa West 17.9 km/h 22.5 km/h 88 % 0 mm
05:38 -14.9 °C -16.1 °C 34235.8 hPa SSW 16.9 km/h 22.5 km/h 88 % 0 mm
05:42 -14.9 °C -16.1 °C 34235.8 hPa WSW 19.6 km/h 22.5 km/h 88 % 0 mm
05:44 -14.9 °C -16.1 °C 34235.8 hPa WSW 16.3 km/h 22.5 km/h 88 % 0 mm
05:47 -14.9 °C -16.1 °C 34235.8 hPa West 14.5 km/h 22.5 km/h 88 % 0 mm
05:51 -14.9 °C -16.1 °C 34235.8 hPa WSW 14.5 km/h 22.5 km/h 88 % 0 mm
05:56 -15 °C -16.1 °C 34235.8 hPa Calm   23 km/h 88 % 0 mm
06:01 -15 °C -16.1 °C 34235.8 hPa West 12.2 km/h 23 km/h 88 % 0 mm
06:02 -15.1 °C -16.1 °C 34235.8 hPa West 14.5 km/h 23 km/h 89 % 0 mm
06:04 -15.1 °C -16.1 °C 34235.8 hPa West 14 km/h 23 km/h 89 % 0 mm
06:08 -15.1 °C -16.1 °C 34235.8 hPa West 19.6 km/h 22 km/h 89 % 0 mm
06:12 -15.1 °C -16.1 °C 34235.8 hPa West 15 km/h 22.5 km/h 90 % 0 mm
06:13 -15.1 °C -16.1 °C 34235.8 hPa WSW 12.2 km/h 22.5 km/h 90 % 0 mm
06:18 -15.2 °C -16.1 °C 34235.8 hPa West 9.8 km/h 20.3 km/h 90 % 0 mm
06:23 -15.2 °C -16.1 °C 34235.8 hPa WSW 4.2 km/h 19.6 km/h 90 % 0 mm
06:28 -15.3 °C -16.1 °C 34198.6 hPa WSW 8 km/h 16.9 km/h 90 % 0 mm
06:33 -15.3 °C -16.1 °C 34198.6 hPa West 3.4 km/h 16.9 km/h 90 % 0 mm
06:34 -15.3 °C -16.1 °C 34198.6 hPa West 7.6 km/h 15.6 km/h 90 % 0 mm
06:39 -15.4 °C -16.1 °C 34198.6 hPa Calm   15.6 km/h 90 % 0 mm
06:40 -15.4 °C -16.1 °C 34198.6 hPa WSW 12.7 km/h 15.6 km/h 90 % 0 mm
06:41 -15.4 °C -16.1 °C 34198.6 hPa West 8 km/h 16.3 km/h 90 % 0 mm
06:46 -15.4 °C -16.1 °C 34198.6 hPa West 16.3 km/h 19.6 km/h 91 % 0 mm
06:48 -15.4 °C -16.1 °C 34198.6 hPa West 16.3 km/h 19.6 km/h 91 % 0 mm
06:53 -15.4 °C -16.1 °C 34198.6 hPa West 16.9 km/h 19.6 km/h 92 % 0 mm
06:58 -15.4 °C -16.1 °C 34198.6 hPa West 15 km/h 19.6 km/h 92 % 0 mm
06:59 -15.4 °C -16.1 °C 34198.6 hPa West 15 km/h 19.6 km/h 92 % 0 mm
07:04 -15.5 °C -16.1 °C 34198.6 hPa WSW 6.9 km/h 16.9 km/h 93 % 0 mm
07:05 -15.5 °C -16.1 °C 34198.6 hPa Calm   15.6 km/h 93 % 0 mm
07:10 -15.6 °C -16.1 °C 34235.8 hPa West 9.3 km/h 15.6 km/h 93 % 0 mm
07:11 -15.6 °C -16.1 °C 34235.8 hPa West 11.1 km/h 15.6 km/h 93 % 0 mm
07:16 -15.6 °C -16.1 °C 34235.8 hPa West 8 km/h 12.7 km/h 93 % 0 mm
07:18 -15.6 °C -16.1 °C 34235.8 hPa Calm   12.7 km/h 93 % 0 mm
07:26 -15.7 °C -16.1 °C 34198.6 hPa West 8.9 km/h 14 km/h 93 % 0 mm
07:35 -15.8 °C -16.1 °C 34198.6 hPa NW 6.9 km/h 9.8 km/h 93 % 0 mm
07:40 -15.8 °C -16.1 °C 34198.6 hPa Calm   8 km/h 93 % 0 mm
07:41 -15.9 °C -16.1 °C 34235.8 hPa Calm   8 km/h 93 % 0 mm
07:46 -15.9 °C -16.1 °C 34235.8 hPa Calm     94 % 0 mm
07:47 -15.9 °C -16.1 °C 34235.8 hPa Calm     94 % 0 mm
07:53 -15.9 °C -16.1 °C 34235.8 hPa WSW 9.3 km/h 9.3 km/h 94 % 0 mm
07:56 -15.9 °C -16.1 °C 34269.7 hPa West 8.9 km/h 11.1 km/h 94 % 0 mm
08:01 -15.9 °C -16.1 °C 34269.7 hPa Calm   12.2 km/h 95 % 0 mm
08:03 -15.9 °C -16.1 °C 34269.7 hPa West 8 km/h 12.2 km/h 95 % 0 mm
08:05 -15.9 °C -16.1 °C 34269.7 hPa Calm   12.2 km/h 95 % 0 mm
08:09 -15.9 °C -16.1 °C 34269.7 hPa WSW 8.9 km/h 9.3 km/h 95 % 0 mm
08:14 -15.9 °C -16.1 °C 34303.6 hPa WSW 6.9 km/h 11.1 km/h 95 % 0 mm
08:15 -15.9 °C -16.1 °C 34303.6 hPa Calm   11.1 km/h 95 % 0 mm
08:25 -15.9 °C -16.1 °C 34303.6 hPa West 9.8 km/h 9.8 km/h 95 % 0 mm
08:27 -15.9 °C -16.1 °C 34303.6 hPa West 11.1 km/h 11.1 km/h 95 % 0 mm
08:32 -15.9 °C -16.1 °C 34303.6 hPa Calm   11.1 km/h 96 % 0 mm
08:33 -15.9 °C -16.1 °C 34303.6 hPa Calm   11.1 km/h 96 % 0 mm
08:38 -15.9 °C -16.1 °C 34303.6 hPa Calm   11.1 km/h 96 % 0 mm
08:43 -16.1 °C -16.1 °C 34303.6 hPa Calm   11.1 km/h 95 % 0 mm
08:44 -16.1 °C -16.1 °C 34303.6 hPa Calm   11.1 km/h 95 % 0 mm
08:55 -16.3 °C -16.7 °C 34303.6 hPa Calm   2.3 km/h 94 % 0 mm
08:58 -16.4 °C -16.7 °C 34303.6 hPa Calm   2.3 km/h 94 % 0 mm
09:00 -16.4 °C -16.7 °C 34303.6 hPa Calm   2.3 km/h 94 % 0 mm
09:04 -16.5 °C -16.7 °C 34303.6 hPa Calm     94 % 0 mm
09:09 -16.6 °C -17.2 °C 34303.6 hPa Calm     94 % 0 mm
09:12 -16.6 °C -16.7 °C 34303.6 hPa Calm     95 % 0 mm
09:17 -16.5 °C -16.7 °C 34303.6 hPa Calm     95 % 0 mm
09:19 -16.5 °C -16.7 °C 34303.6 hPa Calm     95 % 0 mm
09:24 -16.4 °C -16.1 °C 34303.6 hPa Calm   6.9 km/h 96 % 0 mm
09:29 -16.3 °C -16.1 °C 34303.6 hPa Calm   6.9 km/h 97 % 0 mm
09:32 -16.2 °C -16.1 °C 34303.6 hPa Calm     97 % 0 mm
09:37 -16.3 °C -16.1 °C 34303.6 hPa Calm     97 % 0 mm
09:38 -16.2 °C -16.1 °C 34303.6 hPa Calm     97 % 0 mm
09:43 -16.2 °C -16.1 °C 34303.6 hPa Calm     97 % 0 mm
09:49 -16.1 °C -16.1 °C 34303.6 hPa Calm     97 % 0 mm
09:54 -15.9 °C -16.1 °C 34303.6 hPa WSW 6.4 km/h 6.4 km/h 98 % 0 mm
09:59 -15.8 °C -15.6 °C 34303.6 hPa Calm   6.9 km/h 98 % 0 mm
10:01 -15.8 °C -15.6 °C 34303.6 hPa WSW 2.9 km/h 6.9 km/h 98 % 0 mm
10:06 -15.7 °C -15.6 °C 34303.6 hPa Calm   7.6 km/h 98 % 0 mm
10:11 -15.6 °C -15.6 °C 34303.6 hPa WSW 5.6 km/h 14.5 km/h 98 % 0 mm
10:13 -15.5 °C -15.6 °C 34303.6 hPa SSW 4.2 km/h 14.5 km/h 98 % 0 mm
10:18 -15.3 °C -15.6 °C 34303.6 hPa Calm   14.5 km/h 98 % 0 mm
10:21 -15.3 °C -15 °C 34303.6 hPa Calm   9.8 km/h 98 % 0 mm
10:25 -15.2 °C -15 °C 34303.6 hPa Calm     98 % 0 mm
10:30 -15.1 °C -15 °C 34303.6 hPa Calm     98 % 0 mm
10:32 -15.1 °C -15 °C 34303.6 hPa Calm     98 % 0 mm
10:37 -15.1 °C -15 °C 34303.6 hPa Calm   2.3 km/h 98 % 0 mm
10:38 -15.1 °C -15 °C 34303.6 hPa Calm   2.3 km/h 98 % 0 mm
10:41 -15 °C -15 °C 34303.6 hPa Calm   2.3 km/h 97 % 0 mm
10:44 -15 °C -15 °C 34303.6 hPa Calm   3.4 km/h 97 % 0 mm
10:47 -15 °C -15 °C 34303.6 hPa South 3.4 km/h 9.3 km/h 97 % 0 mm
10:52 -14.9 °C -15 °C 34303.6 hPa Calm   9.3 km/h 97 % 0 mm
10:56 -14.9 °C -15 °C 34303.6 hPa Calm   9.3 km/h 97 % 0 mm
10:58 -14.9 °C -15 °C 34303.6 hPa Calm     97 % 0 mm
11:03 -14.8 °C -15 °C 34303.6 hPa SW 8.9 km/h 12.7 km/h 97 % 0 mm
11:04 -14.8 °C -15 °C 34303.6 hPa SW 10.3 km/h 12.7 km/h 97 % 0 mm
11:08 -14.8 °C -15 °C 34303.6 hPa SSW 10.3 km/h 14.5 km/h 97 % 0 mm
11:09 -14.8 °C -15 °C 34303.6 hPa SW 10.3 km/h 14.5 km/h 97 % 0 mm
11:14 -14.7 °C -14.4 °C 34303.6 hPa SSW 5.6 km/h 14.5 km/h 96 % 0 mm
11:19 -14.6 °C -14.4 °C 34303.6 hPa WSW 10.3 km/h 15.6 km/h 96 % 0 mm
11:22 -14.6 °C -14.4 °C 34303.6 hPa Calm   15.6 km/h 96 % 0 mm
11:31 -14.6 °C -14.4 °C 34303.6 hPa SSW 8.9 km/h 14.5 km/h 95 % 0 mm
11:36 -14.5 °C -15 °C 34303.6 hPa WSW 19.2 km/h 19.2 km/h 94 % 0 mm
11:38 -14.4 °C -15 °C 34303.6 hPa SSW 14.5 km/h 19.2 km/h 93 % 0 mm
11:39 -14.4 °C -15 °C 34303.6 hPa SSW 15 km/h 19.2 km/h 93 % 0 mm
11:44 -14.4 °C -15 °C 34303.6 hPa SW 15.6 km/h 19.2 km/h 92 % 0 mm
11:49 -14.4 °C -15 °C 34303.6 hPa SW 9.8 km/h 22 km/h 92 % 0 mm
11:53 -14.4 °C -15 °C 34303.6 hPa SSW 15 km/h 22 km/h 91 % 0 mm
11:58 -14.3 °C -15 °C 34303.6 hPa SSW 19.2 km/h 20.3 km/h 91 % 0 mm
12:00 -14.3 °C -15 °C 34303.6 hPa SSW 15 km/h 20.3 km/h 91 % 0 mm
12:05 -14.2 °C -15 °C 34303.6 hPa Calm   19.6 km/h 91 % 0 mm
12:06 -14.2 °C -15 °C 34303.6 hPa SSW 16.3 km/h 19.6 km/h 91 % 0 mm
12:11 -14.2 °C -15 °C 34269.7 hPa WSW 10.3 km/h 16.3 km/h 91 % 0 mm
12:12 -14.2 °C -15 °C 34269.7 hPa SSW 14.5 km/h 16.3 km/h 91 % 0 mm
12:17 -14.2 °C -14.4 °C 34269.7 hPa Calm   17.4 km/h 91 % 0 mm
12:18 -14.2 °C -14.4 °C 34269.7 hPa Calm   17.4 km/h 91 % 0 mm
12:23 -14.2 °C -15 °C 34269.7 hPa SSW 14 km/h 19.2 km/h 90 % 0 mm
12:26 -14.1 °C -15 °C 34269.7 hPa SSW 9.3 km/h 19.2 km/h 90 % 0 mm
12:31 -14.1 °C -15 °C 34269.7 hPa SSW 4.2 km/h 16.9 km/h 90 % 0 mm
12:33 -14.1 °C -15 °C 34269.7 hPa South 9.3 km/h 16.9 km/h 90 % 0 mm
12:35 -14.1 °C -15 °C 34269.7 hPa SW 12.7 km/h 22 km/h 90 % 0 mm
12:39 -14.1 °C -15 °C 34269.7 hPa South 14.5 km/h 22 km/h 90 % 0 mm
12:44 -14.1 °C -15 °C 34235.8 hPa South 9.3 km/h 22 km/h 90 % 0 mm
12:45 -14.1 °C -15 °C 34235.8 hPa SSW 11.1 km/h 19.2 km/h 90 % 0 mm
12:50 -14.1 °C -15 °C 34235.8 hPa South 16.3 km/h 18.7 km/h 90 % 0 mm
12:55 -14.1 °C -14.4 °C 34235.8 hPa SSW 11.1 km/h 20.9 km/h 91 % 0 mm
12:58 -14.1 °C -14.4 °C 34269.7 hPa South 15.6 km/h 20.9 km/h 91 % 0 mm
13:00 -14.1 °C -14.4 °C 34269.7 hPa SSW 7.6 km/h 20.9 km/h 91 % 0 mm
13:05 -14.1 °C -14.4 °C 34269.7 hPa South 19.2 km/h 20.9 km/h 91 % 0 mm
13:07 -14.1 °C -14.4 °C 34269.7 hPa SSW 9.8 km/h 22 km/h 92 % 0 mm
13:12 -14.1 °C -14.4 °C 34235.8 hPa South 14 km/h 22 km/h 92 % 0 mm
13:15 -14.1 °C -14.4 °C 34235.8 hPa SSW 15 km/h 22.5 km/h 92 % 0 mm
13:19 -14 °C -14.4 °C 34235.8 hPa SSW 12.2 km/h 23.8 km/h 93 % 0 mm
13:24 -14 °C -14.4 °C 34235.8 hPa SSW 16.3 km/h 26.7 km/h 93 % 0 mm
13:25 -14 °C -14.4 °C 34235.8 hPa South 2.9 km/h 26.7 km/h 93 % 0 mm
13:30 -14 °C -14.4 °C 34235.8 hPa SSW 15 km/h 26.7 km/h 93 % 0 mm
13:33 -14 °C -14.4 °C 34235.8 hPa South 8 km/h 20.3 km/h 93 % 0 mm
13:38 -13.9 °C -14.4 °C 34235.8 hPa South 14 km/h 19.6 km/h 94 % 0 mm
13:41 -13.9 °C -14.4 °C 34235.8 hPa Calm   20.9 km/h 93 % 0 mm
13:46 -13.9 °C -14.4 °C 34235.8 hPa SSW 15.6 km/h 20.9 km/h 94 % 0 mm
13:47 -13.9 °C -14.4 °C 34235.8 hPa South 16.3 km/h 20.9 km/h 94 % 0 mm
13:52 -13.9 °C -14.4 °C 34235.8 hPa WSW 12.7 km/h 22 km/h 94 % 0 mm
13:54 -13.9 °C -14.4 °C 34235.8 hPa SSW 20.3 km/h 22 km/h 94 % 0 mm
13:59 -13.8 °C -14.4 °C 34235.8 hPa SSW 12.7 km/h 22.5 km/h 94 % 0 mm
14:03 -13.8 °C -14.4 °C 34235.8 hPa SSW 15.6 km/h 22.5 km/h 94 % 0 mm
14:05 -13.8 °C -14.4 °C 34235.8 hPa SSW 26.2 km/h 31.4 km/h 94 % 0 mm
14:10 -13.8 °C -14.4 °C 34235.8 hPa SW 12.7 km/h 31.4 km/h 94 % 0 mm
14:13 -13.8 °C -14.4 °C 34198.6 hPa WSW 19.2 km/h 31.4 km/h 94 % 0 mm
14:20 -13.8 °C -14.4 °C 34198.6 hPa South 14.5 km/h 27.2 km/h 95 % 0 mm
14:28 -13.9 °C -14.4 °C 34164.7 hPa SW 15.6 km/h 22.5 km/h 95 % 0 mm
14:30 -13.9 °C -14.4 °C 34164.7 hPa SSW 8.9 km/h 19.6 km/h 95 % 0 mm
14:35 -13.9 °C -13.9 °C 34164.7 hPa SSW 16.9 km/h 20.3 km/h 96 % 0 mm
14:40 -13.9 °C -13.9 °C 34164.7 hPa SSW 9.8 km/h 20.3 km/h 96 % 0 mm
14:45 -13.9 °C -13.9 °C 34130.9 hPa SSW 8 km/h 16.3 km/h 96 % 0 mm
14:49 -13.9 °C -13.9 °C 34130.9 hPa South 12.7 km/h 18.7 km/h 96 % 0 mm
14:53 -13.9 °C -13.9 °C 34130.9 hPa SSW 15 km/h 20.3 km/h 97 % 0 mm
14:58 -13.9 °C -13.9 °C 34164.7 hPa South 6.9 km/h 20.3 km/h 97 % 0 mm
14:59 -13.9 °C -13.9 °C 34164.7 hPa South 12.2 km/h 20.3 km/h 97 % 0 mm
15:03 -13.9 °C -13.9 °C 34164.7 hPa SSW 14.5 km/h 20.9 km/h 97 % 0 mm
15:05 -13.9 °C -13.9 °C 34164.7 hPa South 8.9 km/h 20.9 km/h 97 % 0 mm
15:10 -13.9 °C -13.9 °C 34164.7 hPa South 28.5 km/h 28.5 km/h 98 % 0 mm
15:12 -13.9 °C -13.9 °C 34164.7 hPa SSE 22.5 km/h 28.5 km/h 98 % 7.62 mm
15:17 -13.9 °C -13.9 °C 34164.7 hPa South 14 km/h 28.5 km/h 98 % 7.62 mm
15:20 -13.9 °C -13.9 °C 34164.7 hPa SSW 22.5 km/h 28.5 km/h 98 % 7.62 mm
15:23 -13.9 °C -13.9 °C 34164.7 hPa SSW 25.4 km/h 27.2 km/h 98 % 7.62 mm
15:25 -13.9 °C -13.9 °C 34164.7 hPa SSW 16.3 km/h 27.2 km/h 98 % 7.62 mm
15:31 -13.9 °C -13.9 °C 34164.7 hPa SSE 14.5 km/h 32.3 km/h 98 % 7.62 mm
15:33 -13.9 °C -13.9 °C 34164.7 hPa South 20.9 km/h 32.3 km/h 98 % 7.62 mm
15:34 -13.9 °C -13.9 °C 34164.7 hPa SSW 18.7 km/h 32.3 km/h 98 % 7.62 mm
15:39 -14 °C -13.9 °C 34164.7 hPa South 17.9 km/h 32.3 km/h 98 % 7.62 mm
15:40 -14 °C -13.9 °C 34164.7 hPa South 22.5 km/h 28.5 km/h 98 % 7.62 mm
15:43 -14 °C -13.9 °C 34130.9 hPa South 14.5 km/h 28.5 km/h 98 % 7.62 mm
15:48 -14 °C -13.9 °C 34130.9 hPa SSE 15.6 km/h 28.5 km/h 98 % 7.62 mm
15:53 -14 °C -13.9 °C 34130.9 hPa South 22.5 km/h 26.7 km/h 98 % 7.62 mm
15:54 -14 °C -13.9 °C 34130.9 hPa SSE 19.2 km/h 26.7 km/h 98 % 7.62 mm
15:59 -14 °C -13.9 °C 34097 hPa SSE 22 km/h 26.7 km/h 98 % 12.7 mm
16:04 -14 °C -13.9 °C 34097 hPa South 16.3 km/h 29.5 km/h 98 % 12.7 mm
16:10 -14 °C -13.9 °C 34097 hPa SSW 25.4 km/h 32.3 km/h 98 % 12.7 mm
16:12 -14 °C -13.9 °C 34097 hPa South 14 km/h 32.3 km/h 98 % 7.62 mm
16:17 -14 °C -13.9 °C 34097 hPa South 29.5 km/h 37.5 km/h 98 % 7.62 mm
16:22 -14 °C -13.9 °C 34097 hPa South 15.6 km/h 39.4 km/h 98 % 7.62 mm
16:23 -14 °C -13.9 °C 34097 hPa South 22 km/h 39.4 km/h 98 % 7.62 mm
16:28 -14 °C -13.9 °C 34063.2 hPa South 20.3 km/h 34.8 km/h 98 % 7.62 mm
16:30 -14 °C -13.9 °C 34063.2 hPa South 20.3 km/h 34.8 km/h 98 % 7.62 mm
16:35 -14 °C -13.9 °C 34063.2 hPa SSW 27.7 km/h 29 km/h 98 % 12.7 mm
16:36 -14 °C -13.9 °C 34063.2 hPa South 15.6 km/h 29 km/h 98 % 12.7 mm
16:41 -13.9 °C -13.9 °C 34097 hPa South 27.2 km/h 32.3 km/h 98 % 12.7 mm
16:45 -13.9 °C -13.9 °C 34097 hPa SSW 20.3 km/h 34.1 km/h 98 % 12.7 mm
16:50 -13.9 °C -13.9 °C 34097 hPa South 31.4 km/h 34.1 km/h 98 % 12.7 mm
16:55 -13.9 °C -13.9 °C 34097 hPa South 22.5 km/h 39.9 km/h 98 % 12.7 mm
16:56 -13.9 °C -13.9 °C 34097 hPa South 22.5 km/h 39.9 km/h 98 % 7.62 mm
17:01 -13.9 °C -13.9 °C 34097 hPa SSE 31.4 km/h 39.9 km/h 98 % 7.62 mm
17:06 -13.8 °C -13.9 °C 34097 hPa South 16.3 km/h 33.6 km/h 98 % 7.62 mm
17:09 -13.8 °C -13.9 °C 34097 hPa SSW 28.5 km/h 35.2 km/h 98 % 7.62 mm
17:14 -13.8 °C -13.9 °C 34063.2 hPa SSW 30.7 km/h 36.5 km/h 98 % 7.62 mm
17:17 -13.8 °C -13.9 °C 34063.2 hPa South 28.5 km/h 36.5 km/h 98 % 7.62 mm
17:21 -13.8 °C -13.9 °C 34063.2 hPa SSW 42.2 km/h 42.2 km/h 98 % 7.62 mm
17:23 -13.8 °C -13.9 °C 34063.2 hPa SSW 40.7 km/h 42.2 km/h 98 % 7.62 mm
17:28 -13.8 °C -13.9 °C 34063.2 hPa South 29 km/h 42.2 km/h 98 % 7.62 mm
17:34 -13.7 °C -13.9 °C 34063.2 hPa SSW 31.9 km/h 60.8 km/h 98 % 0 mm
17:37 -13.7 °C -13.9 °C 34063.2 hPa South 26.7 km/h 60.8 km/h 98 % 0 mm
17:40 -13.7 °C -13.9 °C 34029.3 hPa South 26.7 km/h 60.8 km/h 98 % 0 mm
17:46 -13.7 °C -13.9 °C 34029.3 hPa South 37 km/h 38.3 km/h 98 % 0 mm
17:51 -13.7 °C -13.9 °C 34029.3 hPa South 45.9 km/h 45.9 km/h 98 % 7.62 mm
17:52 -13.7 °C -13.9 °C 34029.3 hPa WSW 27.2 km/h 45.9 km/h 98 % 7.62 mm
17:57 -13.7 °C -13.9 °C 34029.3 hPa SSW 19.2 km/h 45.9 km/h 98 % 7.62 mm
18:02 -13.7 °C -13.9 °C 34029.3 hPa SSW 27.2 km/h 38.3 km/h 98 % 7.62 mm
18:03 -13.7 °C -13.9 °C 34029.3 hPa SSW 25.4 km/h 38.3 km/h 98 % 7.62 mm
18:12 -13.6 °C -13.3 °C 34029.3 hPa SW 20.3 km/h 44.1 km/h 98 % 7.62 mm
18:13 -13.6 °C -13.3 °C 34029.3 hPa SSW 16.9 km/h 44.1 km/h 98 % 7.62 mm
18:18 -13.6 °C -13.3 °C 34029.3 hPa SSW 26.2 km/h 45.9 km/h 98 % 7.62 mm
18:22 -13.6 °C -13.3 °C 34029.3 hPa SSW 27.7 km/h 45.9 km/h 98 % 7.62 mm
18:27 -13.5 °C -13.3 °C 34029.3 hPa SSW 20.9 km/h 40.7 km/h 98 % 7.62 mm
18:28 -13.5 °C -13.3 °C 34029.3 hPa SW 20.9 km/h 40.7 km/h 98 % 7.62 mm
18:33 -13.4 °C -13.3 °C 34029.3 hPa SSW 28.5 km/h 40.7 km/h 98 % 7.62 mm
18:34 -13.4 °C -13.3 °C 34029.3 hPa SW 19.6 km/h 40.7 km/h 98 % 7.62 mm
18:39 -13.4 °C -13.3 °C 34029.3 hPa SSW 16.3 km/h 31.9 km/h 98 % 7.62 mm
18:42 -13.4 °C -13.3 °C 34029.3 hPa SSW 31.4 km/h 34.1 km/h 98 % 7.62 mm
18:47 -13.4 °C -13.3 °C 34029.3 hPa SW 31.4 km/h 34.1 km/h 98 % 7.62 mm
18:49 -13.4 °C -13.3 °C 34029.3 hPa SW 16.9 km/h 34.1 km/h 98 % 7.62 mm
18:52 -13.3 °C -13.3 °C 34029.3 hPa SSW 20.3 km/h 31.4 km/h 98 % 0 mm
18:57 -13.3 °C -13.3 °C 34029.3 hPa SSW 15.6 km/h 27.7 km/h 98 % 0 mm
19:00 -13.3 °C -13.3 °C 34029.3 hPa SSW 19.2 km/h 33.6 km/h 98 % 0 mm
19:02 -13.3 °C -13.3 °C 34029.3 hPa SW 15.6 km/h 33.6 km/h 98 % 0 mm
19:06 -13.3 °C -13.3 °C 34029.3 hPa SSW 12.7 km/h 33.6 km/h 98 % 0 mm
19:11 -13.2 °C -13.3 °C 33992.1 hPa South 22.5 km/h 27.7 km/h 98 % 0 mm
19:17 -13.2 °C -12.8 °C 33992.1 hPa SW 22 km/h 27.7 km/h 98 % 0 mm
19:19 -13.2 °C -12.8 °C 33992.1 hPa SSW 22.5 km/h 27.7 km/h 98 % 0 mm
19:24 -13.1 °C -12.8 °C 33992.1 hPa SSW 11.1 km/h 28.5 km/h 98 % 0 mm
19:25 -13.1 °C -12.8 °C 33992.1 hPa SSW 15 km/h 28.5 km/h 98 % 0 mm
19:30 -13.1 °C -12.8 °C 33992.1 hPa SW 15.6 km/h 28.5 km/h 98 % 0 mm
19:32 -13.1 °C -12.8 °C 33992.1 hPa SSW 15.6 km/h 22 km/h 98 % 0 mm
19:37 -13.1 °C -12.8 °C 33992.1 hPa SSW 12.7 km/h 20.3 km/h 98 % 0 mm
19:43 -13.1 °C -12.8 °C 33958.2 hPa SSW 16.3 km/h 19.6 km/h 98 % 0 mm
19:50 -13 °C -12.8 °C 33958.2 hPa SSW 14 km/h 24.8 km/h 98 % 0 mm
19:54 -12.9 °C -12.8 °C 33958.2 hPa SSW 11.1 km/h 24.8 km/h 98 % 0 mm
19:59 -12.9 °C -12.8 °C 33958.2 hPa SSW 8 km/h 19.6 km/h 98 % 0 mm
20:06 -12.9 °C -12.8 °C 33958.2 hPa SSW 16.3 km/h 20.9 km/h 98 % 0 mm
20:12 -12.8 °C -12.8 °C 33958.2 hPa SW 14 km/h 22.5 km/h 98 % 0 mm
20:17 -12.8 °C -12.8 °C 33958.2 hPa SW 16.9 km/h 22.5 km/h 98 % 0 mm
20:20 -12.7 °C -12.8 °C 33958.2 hPa SW 15.6 km/h 22.5 km/h 98 % 0 mm
20:25 -12.7 °C -12.8 °C 33958.2 hPa WSW 14.5 km/h 19.6 km/h 98 % 0 mm
20:26 -12.7 °C -12.8 °C 33958.2 hPa SSW 12.7 km/h 19.6 km/h 98 % 0 mm
20:31 -12.6 °C -12.8 °C 33958.2 hPa SSW 14.5 km/h 23.8 km/h 98 % 0 mm
20:36 -12.6 °C -12.8 °C 33958.2 hPa SSW 22 km/h 23.8 km/h 98 % 0 mm
20:41 -12.5 °C -12.2 °C 33958.2 hPa South 20.3 km/h 22 km/h 98 % 0 mm
20:43 -12.5 °C -12.2 °C 33958.2 hPa SW 15 km/h 22 km/h 98 % 0 mm
20:46 -12.4 °C -12.2 °C 33958.2 hPa WSW 16.3 km/h 22 km/h 98 % 0 mm
20:48 -12.4 °C -12.2 °C 33958.2 hPa SW 14.5 km/h 22.5 km/h 98 % 0 mm
20:56 -12.3 °C -12.2 °C 33958.2 hPa WSW 10.3 km/h 22.5 km/h 98 % 0 mm
21:04 -12.2 °C -12.2 °C 33958.2 hPa SW 22 km/h 23 km/h 98 % 0 mm
21:09 -12.1 °C -12.2 °C 33958.2 hPa SSW 16.3 km/h 27.2 km/h 98 % 0 mm
21:10 -12.1 °C -12.2 °C 33958.2 hPa SW 15 km/h 27.2 km/h 98 % 0 mm
21:14 -12.1 °C -12.2 °C 33924.3 hPa WSW 27.2 km/h 27.2 km/h 98 % 0 mm
21:19 -12 °C -12.2 °C 33924.3 hPa SW 15.6 km/h 37.5 km/h 98 % 0 mm
21:20 -12 °C -12.2 °C 33924.3 hPa WSW 19.6 km/h 37.5 km/h 98 % 0 mm
21:25 -12 °C -12.2 °C 33924.3 hPa SW 19.6 km/h 27.7 km/h 98 % 0 mm
21:26 -12 °C -12.2 °C 33924.3 hPa WSW 15 km/h 27.7 km/h 98 % 0 mm
21:36 -12 °C -12.2 °C 33924.3 hPa SSW 20.3 km/h 28.5 km/h 98 % 0 mm
21:37 -11.9 °C -11.7 °C 33924.3 hPa WSW 28.5 km/h 28.5 km/h 98 % 0 mm
21:42 -11.9 °C -11.7 °C 33890.5 hPa WSW 20.9 km/h 31.4 km/h 98 % 0 mm
21:47 -11.9 °C -11.7 °C 33890.5 hPa WSW 28.5 km/h 31.4 km/h 98 % 0 mm
21:53 -11.9 °C -11.7 °C 33890.5 hPa SW 25.4 km/h 34.8 km/h 98 % 0 mm
21:54 -11.9 °C -11.7 °C 33890.5 hPa SSW 27.7 km/h 34.8 km/h 98 % 0 mm
21:59 -11.8 °C -11.7 °C 33924.3 hPa SW 20.3 km/h 34.8 km/h 98 % 0 mm
22:04 -11.8 °C -11.7 °C 33924.3 hPa WSW 33.6 km/h 41.2 km/h 98 % 0 mm
22:06 -11.8 °C -11.7 °C 33924.3 hPa WSW 22 km/h 41.2 km/h 98 % 0 mm
22:12 -11.8 °C -11.7 °C 33890.5 hPa SSW 29 km/h 45.9 km/h 98 % 0 mm
22:17 -11.7 °C -11.7 °C 33890.5 hPa WSW 32.3 km/h 45.9 km/h 98 % 0 mm
22:22 -11.7 °C -11.7 °C 33890.5 hPa WSW 31.9 km/h 50.5 km/h 98 % 0 mm
22:25 -11.7 °C -11.7 °C 33890.5 hPa WSW 22.5 km/h 50.5 km/h 98 % 0 mm
22:30 -11.7 °C -11.7 °C 33890.5 hPa SSW 33.2 km/h 35.2 km/h 98 % 0 mm
22:33 -11.7 °C -11.7 °C 33890.5 hPa WSW 22.5 km/h 35.2 km/h 98 % 0 mm
22:36 -11.7 °C -11.7 °C 33890.5 hPa SW 39.4 km/h 39.4 km/h 98 % 0 mm
22:42 -11.6 °C -11.7 °C 33856.6 hPa WSW 27.7 km/h 39.4 km/h 98 % 0 mm
22:47 -11.6 °C -11.7 °C 33856.6 hPa WSW 30.7 km/h 37.5 km/h 98 % 0 mm
22:48 -11.6 °C -11.7 °C 33856.6 hPa SSW 26.7 km/h 37.5 km/h 98 % 0 mm
22:54 -11.6 °C -11.7 °C 33856.6 hPa SSW 32.3 km/h 37.5 km/h 97 % 0 mm
22:55 -11.6 °C -11.7 °C 33856.6 hPa SSW 26.7 km/h 37.5 km/h 97 % 0 mm
22:59 -11.6 °C -11.7 °C 33788.9 hPa SSW 25.4 km/h 38.3 km/h 97 % 0 mm
23:04 -11.6 °C -11.7 °C 33788.9 hPa SSW 27.7 km/h 43.5 km/h 97 % 0 mm
23:06 -11.6 °C -11.7 °C 33788.9 hPa SW 33.2 km/h 43.5 km/h 97 % 0 mm
23:10 -11.6 °C -11.7 °C 33788.9 hPa SW 33.6 km/h 43.5 km/h 96 % 0 mm
23:12 -11.6 °C -11.7 °C 33822.8 hPa SW 20.9 km/h 43.5 km/h 96 % 0 mm
23:16 -11.7 °C -11.7 °C 33822.8 hPa WSW 27.2 km/h 34.8 km/h 96 % 0 mm
23:19 -11.7 °C -11.7 °C 33822.8 hPa SW 20.9 km/h 40.7 km/h 96 % 0 mm
23:24 -11.7 °C -11.7 °C 33822.8 hPa SW 26.7 km/h 40.7 km/h 96 % 0 mm
23:29 -11.7 °C -12.2 °C 33788.9 hPa SSW 18.7 km/h 39.9 km/h 95 % 0 mm
23:31 -11.7 °C -12.2 °C 33788.9 hPa SW 20.9 km/h 39.9 km/h 95 % 0 mm
23:38 -11.6 °C -12.2 °C 33788.9 hPa SSW 23 km/h 38.3 km/h 95 % 0 mm
23:49 -11.7 °C -11.7 °C 33788.9 hPa SSW 14.5 km/h 31.9 km/h 96 % 0 mm
23:50 -11.7 °C -11.7 °C 33788.9 hPa SSW 12.7 km/h 31.9 km/h 96 % 0 mm
23:55 -11.7 °C -11.7 °C 33788.9 hPa SSW 16.9 km/h 34.1 km/h 96 % 0 mm
23:58 -11.7 °C -11.7 °C 33731.3 hPa South 19.6 km/h 34.1 km/h 96 % 0 mm
Le Gheer Warneton
Courtoisie de Weather Underground - 2.75 mb

Mise a jour : 18/02/2018 06:24:11
Généré par Cumulus 1.9.4 (1099)